| time (UTC) | temp F | wind direction | speed knots | gust knots | rain 1hr in | rain 24hr in | rain mn in | humidity % | barometer mb |
| 20260504034522 | 50 | 273 | 0.0 | 0.0 | 0.00 | 0.00 | 0.00 | 54 | 1016.4 |
| 20260504033016 | 51 | 273 | 0.0 | 0.0 | 0.00 | 0.00 | 0.00 | 54 | 1016.3 |
| 20260504031516 | 52 | 273 | 0.0 | 0.0 | 0.00 | 0.00 | 0.00 | 51 | 1016.3 |
| 20260504030034 | 53 | 273 | 0.0 | 1.7 | 0.00 | 0.00 | 0.00 | 48 | 1016.3 |
| 20260504024525 | 52 | 225 | 1.7 | 3.5 | 0.00 | 0.00 | 0.00 | 41 | 1016.4 |
| 20260504023023 | 48 | 239 | 0.9 | 2.6 | 0.00 | 0.00 | 0.00 | 48 | 1016.3 |
| 20260504021524 | 45 | 234 | 0.9 | 2.6 | 0.00 | 0.00 | 0.00 | 61 | 1016.3 |
| 20260504020032 | 44 | 213 | 0.0 | 0.0 | 0.00 | 0.00 | 0.00 | 66 | 1016.1 |
| 20260504014506 | 44 | 213 | 0.0 | 1.7 | 0.00 | 0.00 | 0.00 | 64 | 1016.0 |
| 20260504013006 | 44 | 248 | 0.0 | 1.7 | 0.00 | 0.00 | 0.00 | 61 | 1015.8 |
| 20260504011507 | 45 | 283 | 0.0 | 0.0 | 0.00 | 0.00 | 0.00 | 59 | 1015.6 |
| 20260504010004 | 47 | 283 | 0.0 | 0.0 | 0.00 | 0.00 | 0.00 | 56 | 1015.5 |
| 20260504004520 | 49 | 283 | 0.0 | 0.0 | 0.00 | 0.00 | 0.00 | 52 | 1015.5 |
| 20260504003005 | 51 | 283 | 0.0 | 0.0 | 0.00 | 0.00 | 0.00 | 48 | 1015.4 |
| 20260504001523 | 53 | 283 | 0.0 | 0.0 | 0.00 | 0.00 | 0.00 | 45 | 1015.3 |
| 20260504000007 | 56 | 283 | 0.0 | 0.0 | 0.00 | 0.00 | 0.00 | 37 | 1015.4 |
| 20260503234510 | 58 | 283 | 0.0 | 1.7 | 0.00 | 0.00 | 0.00 | 33 | 1015.3 |
| 20260503233007 | 60 | 253 | 0.9 | 1.7 | 0.00 | 0.00 | 0.00 | 28 | 1015.2 |
| 20260503231510 | 61 | 281 | 0.0 | 3.5 | 0.00 | 0.00 | 0.00 | 29 | 1015.0 |
| 20260503230008 | 62 | 216 | 1.7 | 3.5 | 0.00 | 0.00 | 0.00 | 24 | 1014.9 |
| 20260503224508 | 62 | 240 | 1.7 | 3.5 | 0.00 | 0.00 | 0.00 | 28 | 1014.9 |
| 20260503223011 | 62 | 271 | 2.6 | 7.0 | 0.00 | 0.00 | 0.00 | 26 | 1015.0 |
| 20260503221510 | 63 | 309 | 0.9 | 5.2 | 0.00 | 0.00 | 0.00 | 24 | 1014.9 |
| 20260503220021 | 64 | 242 | 0.9 | 6.1 | 0.00 | 0.00 | 0.00 | 21 | 1014.9 |
| 20260503214522 | 63 | 226 | 0.9 | 4.3 | 0.00 | 0.00 | 0.00 | 21 | 1015.0 |
| 20260503213018 | 63 | 340 | 2.6 | 8.7 | 0.00 | 0.00 | 0.00 | 22 | 1015.1 |
| 20260503211514 | 63 | 219 | 2.6 | 8.7 | 0.00 | 0.00 | 0.00 | 27 | 1015.1 |
| 20260503210016 | 63 | 279 | 3.5 | 9.6 | 0.00 | 0.00 | 0.00 | 25 | 1015.3 |
| 20260503204524 | 64 | 248 | 3.5 | 7.8 | 0.00 | 0.00 | 0.00 | 26 | 1015.3 |
| 20260503203013 | 63 | 219 | 1.7 | 8.7 | 0.00 | 0.00 | 0.00 | 27 | 1015.5 |
| 20260503201514 | 63 | 254 | 1.7 | 4.3 | 0.00 | 0.00 | 0.00 | 30 | 1015.5 |
| 20260503200015 | 62 | 254 | 2.6 | 7.8 | 0.00 | 0.00 | 0.00 | 26 | 1015.7 |
| 20260503194512 | 62 | 269 | 3.5 | 7.8 | 0.00 | 0.00 | 0.00 | 24 | 1016.0 |
| 20260503193014 | 61 | 22 | 2.6 | 6.1 | 0.00 | 0.00 | 0.00 | 26 | 1016.0 |
| 20260503191515 | 61 | 310 | 3.5 | 6.1 | 0.00 | 0.00 | 0.00 | 26 | 1016.3 |
| 20260503190017 | 60 | 284 | 1.7 | 6.1 | 0.00 | 0.00 | 0.00 | 29 | 1016.4 |
| 20260503184516 | 60 | 323 | 1.7 | 5.2 | 0.00 | 0.00 | 0.00 | 30 | 1017.0 |
| 20260503183019 | 59 | 5 | 2.6 | 7.8 | 0.00 | 0.00 | 0.00 | 29 | 1017.1 |
| 20260503181534 | 60 | 247 | 1.7 | 8.7 | 0.00 | 0.00 | 0.00 | 32 | 1017.1 |
| 20260503180027 | 59 | 209 | 0.9 | 6.1 | 0.00 | 0.00 | 0.00 | 36 | 1017.3 |
| 20260503174519 | 58 | 259 | 2.6 | 6.1 | 0.00 | 0.00 | 0.00 | 37 | 1017.4 |
| 20260503173016 | 57 | 352 | 4.3 | 8.7 | 0.00 | 0.00 | 0.00 | 33 | 1017.3 |
| 20260503171525 | 56 | 352 | 3.5 | 8.7 | 0.00 | 0.00 | 0.00 | 33 | 1017.7 |
| 20260503081526 | 37 | 320 | 0.0 | 1.7 | 0.00 | 0.00 | 0.00 | 69 | 1016.2 |
| 20260503071508 | 40 | 250 | 0.0 | 0.0 | 0.00 | 0.00 | 0.00 | 63 | 1015.6 |
| 20260503054518 | 37 | 301 | 0.0 | 1.7 | 0.00 | 0.00 | 0.00 | 70 | 1015.5 |
| 20260503053015 | 38 | 327 | 0.0 | 1.7 | 0.00 | 0.00 | 0.00 | 70 | 1015.6 |
| 20260503051508 | 38 | 327 | 0.0 | 1.7 | 0.00 | 0.00 | 0.00 | 69 | 1015.5 |
| 20260503050006 | 38 | 352 | 0.0 | 1.7 | 0.00 | 0.00 | 0.00 | 66 | 1015.4 |
| 20260503044503 | 38 | 290 | 0.0 | 1.7 | 0.00 | 0.00 | 0.00 | 69 | 1015.4 |
| 20260503043004 | 39 | 290 | 0.0 | 1.7 | 0.00 | 0.00 | 0.00 | 66 | 1015.4 |
| 20260503041516 | 39 | 290 | 0.0 | 1.7 | 0.00 | 0.00 | 0.00 | 62 | 1015.6 |
| 20260503040026 | 40 | 275 | 0.0 | 0.0 | 0.00 | 0.00 | 0.00 | 64 | 1015.6 |